Location: *
(45.8589°N, 4.7139°E)
Time: 22:41:15
(UTC+00:00)

Cosmos 1140 Rocket - Pass Details

Date: 09 April 2020
Orbit: 745 x 767 km, 74.1° (Epoch: 05 June)

Event Time Altitude Azimuth Distance (km) Brightness Sun altitude
Rises 20:04:22 0° 214° (SW) 3,202 6.7 -17.5°
Reaches altitude 10° 20:06:47 10° 219° (SW) 2,278 6.0 -17.8°
Maximum altitude 20:11:49 53° 296° (WNW) 929 4.3 -18.6°
Drops below altitude 10° 20:16:52 10° 13° (NNE) 2,279 6.2 -19.3°
Sets 20:19:18 0° 18° (NNE) 3,205 6.9 -19.6°
